Location: Newark
(34.9500°N, 139.9667°E)
Time: 11:20:10
(UTC+00:00)

Vanguard 1 Rocket - Pass Details

Date: 17 December 2019
Orbit: 650 x 4226 km, 34.3° (Epoch: 23 January)

Event Time Altitude Azimuth Distance (km) Brightness Sun altitude
Rises 10:52:32 0° 255° (WSW) 8,401 13.1 -40.5°
Reaches altitude 10° 10:58:44 10° 255° (WSW) 7,172 12.5 -41.7°
Enters shadow 11:21:02 83° 202° (SSW) 2,753 9.5 -46.3°
Maximum altitude 11:21:31 84° 171° (S) 2,713 - -46.4°
Drops below altitude 10° 11:33:12 10° 85° (E) 4,035 - -48.8°
Sets 11:35:39 0° 84° (E) 4,701 - -49.3°
